Regional Weather Roundup
Issued by NWS

Home | Current Version | Previous Version | Text Only | Print | Product List | Glossary On
Versions: 1 2 3 4 5 6 7 8 9 10 11 12 13 14 15 16 17 18 19 20 21 22 23 24 25 26 27 28 29 30 31 32 33 34 35 36 37 38 39 40 41 42 43 44 45 46 47 48 49 50
000
ASUS44 KEWX 232311
RWRTX
SOUTH TEXAS REGIONAL WEATHER ROUNDUP
NATIONAL WEATHER SERVICE AUSTIN/SAN ANTONIO TX
600 PM CDT THU MAR 23 2017

NOTE: "FAIR" INDICATED FEW OR NO CLOUDS BELOW 12,000 FEET WITH NO
SIGNIFICANT WEATHER AND/OR OBSTRUCTIONS TO VISIBILITY.

* - THESE STATIONS ARE NOT NWS OR FAA STATIONS...AND ARE NOT SUBJECT
    TO NWS AND FAA QUALITY CONTROL.

TXZ171-172-183>190-240000-
TEXAS HILL COUNTRY AND EDWARDS PLATEAU

CITY           SKY/WX    TMP DP  RH WIND       PRES   REMARKS
JUNCTION       SUNNY     80  51  36 S23G35    29.87F
*LLANO         HVY RAIN  82  48  30 S22G32    29.92S
BURNET         SUNNY     80  42  25 S16G30    29.93F
*HORSESHOE BAY SUNNY     81  45  27 S16G29    29.91F
*KERRVILLE     MOSUNNY   76  57  50 S20G33    29.93S
*FREDERICKSBRG SUNNY     76  47  34 S22G36    29.92S
*ROCKSPRINGS   SUNNY     73  55  53 S16G29    29.92S
*BOERNE STAGE  CLOUDY    77  46  33 S18G30    29.95S
*CASTROVILLE   CLOUDY    81  52  36 SE18G28   29.92F
HONDO          MOSUNNY   83  56  39 S20G29    29.90F
*UVALDE        MOSUNNY   81  57  43 SE18G28   29.88F
DEL RIO        MOSUNNY   83  57  41 SE26G33   29.80F
LAUGHLIN AFB   PTSUNNY   83  61  46 SE23G32   29.81F
CARRIZO SPRGS  MOSUNNY   86  57  37 SE20G28   29.84F
*EAGLE PASS    CLEAR     84  55  37 SE13G24   29.83F
$$

TXZ173-191>194-202-209-217>225-228-240000-
CENTRAL AND SOUTH CENTRAL TEXAS

CITY           SKY/WX    TMP DP  RH WIND       PRES   REMARKS
GEORGETOWN     SUNNY     82  43  24 S23G35    29.92F
AUSTIN/BERGSTM MOSUNNY   82  45  27 S24G38    29.93F
AUSTIN/MABRY   SUNNY     81  49  32 S15G30    29.94F
*AUSTIN/EXEC   SUNNY     81  46  30 S18G35    29.94F
*LAGO VISTA    SUNNY     80  46  29 S15G30    29.94F
SAN MARCOS     SUNNY     81  48  32 S22G31    29.95F
NEW BRAUNFELS  CLOUDY    81  40  23 S31G39    29.93F
RANDOLPH AFB   CLOUDY    79  49  35 SE20G28   29.93F
PT SAN ANTONIO CLOUDY    80  47  32 SE22G32   29.90F
SAN ANTONIO    CLOUDY    80  48  32 SE26G37   29.93F
STINSON FIELD  PTSUNNY   82  46  28 SE21G28   29.91F
*PLEASANTON    PTSUNNY   82  47  30 SE18G29   29.92F
*LA GRANGE     SUNNY     81  52  35 S18G30    29.96F
*GIDDINGS      SUNNY     80  46  29 S18G29    29.98F
*GONZALES      SUNNY     80  51  35 S23G31    29.97S
$$

TXZ163>164-176>182-195>201-210>213-226-227-235-240000-
SOUTHEAST TEXAS

CITY           SKY/WX    TMP DP  RH WIND       PRES   REMARKS
COLLEGE STN    SUNNY     83  44  25 S22G36    29.98S
*BRYAN         SUNNY     82  46  27 S24G31    29.99F
*CALDWELL      NOT AVBL
*CROCKETT      MOSUNNY   82  48  30 S15G25    30.01F
*BRENHAM       SUNNY     83  49  30 SE18G25   30.00S
HUNTSVILLE     SUNNY     84  38  19 S17G31    30.00F
CONROE         SUNNY     80  58  46 SE21G29   30.03S
HOUSTON BUSH   MOSUNNY   80  51  36 S17G28    30.05S
HOUSTON HOBBY  MOSUNNY   77  57  50 SE14G30   30.06S
*HOUSTON SW AP SUNNY     75  60  58 SE14G21   30.07S
PEARLAND       SUNNY     78  59  51 S15G21    30.09R
HOUSTON HOOKS  SUNNY     81  55  40 SE18G28   30.03S
ELLINGTON FLD  MOSUNNY   77  57  50 S16G23    30.08F
SUGAR LAND     SUNNY     79  56  45 S21G28    30.04S
*HOUSTON EXEC  SUNNY     81  55  41 S17G23    30.03F
*CLEVELAND MUN SUNNY     80  53  39 S16G22    30.06S
*WHARTON       SUNNY     78  52  40 S22G30    30.04S
*COLUMBUS      FAIR      78  50  36 S16G26    30.01F
*EAGLE LAKE    CLEAR     80  54  39 S21G28    30.01F
$$

TXZ214>216-236>238-240000-
THE UPPER TEXAS COAST

CITY           SKY/WX    TMP DP  RH WIND       PRES   REMARKS
*ORANGE        SUNNY     77  61  58 S10G17    30.12S
PORT ARTHUR    SUNNY     78  58  49 SE17      30.08F
GALVESTON      MOSUNNY   75  68  78 SE17      30.09F
ANGLETON       MOSUNNY   76  64  66 S20G26    30.07F
*BAY CITY      MOSUNNY   77  64  65 SE15G22   30.05F
PALACIOS       PTSUNNY   75  65  70 SE18G25   30.04F
$$

TXZ229>234-239>247-240000-
TEXAS COASTAL BEND AND RIO GRANDE PLAINS

CITY           SKY/WX    TMP DP  RH WIND       PRES   REMARKS
VICTORIA       SUNNY     79  62  56 S23G29    30.00F
*BEEVILLE      SUNNY     77  64  64 SE15G28   29.96S
ROCKPORT       SUNNY     77  66  68 SE20G29   29.99F
*PORT ARANSAS  SUNNY     74  67  76 SE16G24   29.99F
*PORT LAVACA   MOSUNNY   76  66  71 SE21G28   30.02F
*INGLESIDE     SUNNY     77  68  72 SE20G35   29.98F
CORPUS CHRISTI MOSUNNY   78  65  63 SE33      29.97F
CORPUS NAS     MOSUNNY   78  67  68 SE28G33   29.97F
*ROBSTOWN      SUNNY     79  62  56 SE28G33   29.96F
ALICE          SUNNY     80  60  50 SE25G33   29.92F
KINGSVILLE NAS MOSUNNY   79  66  64 SE26G35   29.94F
COTULLA        MOSUNNY   86  54  33 S20G28    29.88F
*FAITH RANCH   SUNNY     86  54  32 SE20G30   29.84F
LAREDO         MOSUNNY   85  60  42 SE21G32   29.87R
$$

TXZ248>255-240000-
DEEP SOUTH TEXAS

CITY           SKY/WX    TMP DP  RH WIND       PRES   REMARKS
BROWNSVILLE    MOSUNNY   79  65  62 SE23G36   29.97F
PORT ISABEL    SUNNY     79  65  62 SE29G37   29.96F
*SOUTH PADRE   NOT AVBL
HARLINGEN      MOSUNNY   81  62  52 S28G36    29.94F
*HEBBRONVILLE  SUNNY     82  54  38 S22G31    29.91S
MCALLEN        MOSUNNY   83  63  50 SE28G38   29.92F
*WESLACO       SUNNY     82  61  49 S23G31    29.92F
FALFURRIAS     SUNNY     84  54  35 SE17G24   29.91S
EDINBURG       SUNNY     84  59  42 SE23G30   29.93S
*ZAPATA        SUNNY     84  57  39 SE20G29   29.85S
$$

TXZ213>215-236>238-242>244-246-247-251-254-255-240000-
CMAN STATIONS

STATION/POSITION TIME  TEMP    WIND        PRES    WAVE
                       AIR SEA DIR/SP/G            HT/PER
                 (UTC) (F)     (DEG/KT/KT) (MB)    (FT/S)
SABINE PASS      2248   72 74  140/ 15/ 17 1020.7
SEA RIM ST PARK  2300   72     140/ 14/ 17 1019.5
NORTH JETTY/GLS  2248          140/ 19/ 20   N/A
EAGLE POINT      2248   72 77  150/ 17/ 19 1018.7
MORGANS POINT    2248   74 72  130/ 10/ 16 1018.8
MISSION/ARANSAS  2200   74                 1017.0
PORT O`CONNOR    2248   73     130/ 17/ 20 1016.6
PORT ARANSAS     2300   72 73  130/ 17/ 19 1015.8
MALAQUITE BEACH  2248   72 72  120/ 18/ 21 1015.8
BAFFIN BAY       2248   74 80  100/ 20/ 26 1015.0
PORT ISABEL      2248   75 74  150/ 20/ 26 1015.1
$$

GMZ080-GMZ150>470-240000-
OFFSHORE BUOY REPORTS

STATION/POSITION TIME  TEMP    WIND        PRES    WAVE
                       AIR SEA DIR/SP/G            HT/PER
                 (UTC) (F)     (DEG/KT/KT) (MB)    (FT/S)
20 E GALVESTON   2250   72 74  140/ 17/ 21 1018.4    3/ 6
90 E PT ARANSAS  2250   74 73  140/ 17/ 19 1017.5    4/ 5
35 NE PT MANSFLD 2250   73     150/ 16/ 17 1015.5    4/ 6
200 E PT ISABEL  2250   75 77  140/ 16/ 19 1018.7    3/ 5
$$



USA.gov is the U.S. government's official web portal to all federal, state and local government web resources and services.